sat.trackr.live / text

‹ back to catalog

ONEWEB-0704

NORAD 61609 · 2024-188R

PAYLOAD ACTIVE UNKNOWN

§ Identity

Operator
Country
UK
Launch date
2024-10-20
Launch site
AFWTR
Launch vehicle
Mass (kg)
RCS (m²)

Purposes: comms

External: N2YO · Heavens-Above · Gunter

§ Orbital elements

Epoch: 2026-05-25T03:53:34.721088Z

Period
109.89 min
Inclination
87.8872°
Eccentricity
0.0001143
Mean motion
13.10372529 rev/d
Perigee alt
1,220.8 km
Apogee alt
1,222.6 km
Semi-major
7,599.9 km
B*
1.9718e-3
RAAN
40.8362°
Arg perigee
114.5387°
Mean anomaly
245.5860°
Rev number
8,027

§ Raw data

ONEWEB-07041 61609U 24188R   26145.16220742  .00000701  00000+0  19718-2 0  99922 61609  87.8872  40.8362 0001143 114.5387 245.5860 13.10372529 80275

JSON: /api/v1/satellites/61609 · /tle

For live sub-satellite position, see the globe view (requires WebGL).

§ Visibility from observer

Set your observer location to see the next 7 days of passes ≥ 10°. The values pass through the URL so the page stays shareable.

No JS? Fill the form by hand. The geolocation button needs JavaScript.